QPF
0.04 0.03 0.02 0.01 0.00 0.00 0.00 0.00 0.00 0.00 0.00 0.00 0.00 0.00 0.00 0.00 0.00 0.00 0.00 0.00 0.01 0.01 0.01 0.02 0.03 0.03 0.04 0.04 0.04 0.04 0.04 0.04 0.04 0.01 0.01 0.00 0.01 0.02 0.02 0.04 0.04 0.05 0.05
0.03 0.02 0.01 0.01 0.00 0.00 0.00 0.00 0.00 0.00 0.00 0.00 0.00 0.00 0.00 0.00 0.00 0.00 0.01 0.01 0.02 0.03 0.03 0.03 0.03 0.03 0.04 0.04 0.04 0.03 0.02 0.02 0.03 0.03 0.02 0.02 0.03 0.04 0.04 0.05 0.03 0.02 0.04
0.02 0.01 0.01 0.01 0.00 0.00 0.00 0.00 0.00 0.00 0.00 0.00 0.00 0.00 0.00 0.01 0.01 0.01 0.01 0.02 0.02 0.02 0.02 0.02 0.02 0.02 0.03 0.02 0.02 0.01 0.01 0.01 0.02 0.03 0.03 0.04 0.04 0.04 0.05 0.04 0.04 0.06 0.03
0.02 0.02 0.01 0.01 0.01 0.01 0.00 0.00 0.00 0.00 0.00 0.01 0.01 0.01 0.01 0.01 0.01 0.00 0.00 0.01 0.01 0.01 0.01 0.01 0.01 0.01 0.02 0.01 0.01 0.01 0.01 0.02 0.03 0.04 0.05 0.04 0.04 0.03 0.04 0.04 0.04 0.05 0.05
0.03 0.03 0.02 0.01 0.01 0.01 0.00 0.00 0.01 0.01 0.01 0.01 0.01 0.01 0.00 0.00 0.00 0.00 0.00 0.00 0.00 0.00 0.00 0.01 0.01 0.01 0.01 0.01 0.01 0.01 0.01 0.03 0.03 0.04 0.04 0.03 0.02 0.02 0.03 0.03 0.03 0.03 0.02
0.04 0.03 0.02 0.01 0.01 0.01 0.01 0.01 0.01 0.01 0.01 0.00 0.00 0.00 0.00 0.00 0.00 0.00 0.00 0.00 0.00 0.01 0.01 0.01 0.01 0.01 0.01 0.01 0.01 0.02 0.03 0.04 0.04 0.04 0.03 0.02 0.01 0.02 0.03 0.04 0.04 0.05 0.04
0.03 0.02 0.01 0.01 0.01 0.01 0.01 0.01 0.00 0.00 0.00 0.00 0.00 0.00 0.00 0.00 0.00 0.00 0.00 0.00 0.01 0.01 0.02 0.02 0.02 0.01 0.02 0.02 0.02 0.03 0.03 0.03 0.03 0.04 0.04 0.03 0.03 0.04 0.07 0.07 0.07 0.08 0.07
0.02 0.02 0.01 0.01 0.01 0.01 0.00 0.00 0.00 0.00 0.00 0.00 0.00 0.00 0.01 0.01 0.00 0.00 0.00 0.00 0.01 0.01 0.02 0.03 0.03 0.03 0.02 0.02 0.01 0.01 0.01 0.01 0.02 0.03 0.04 0.04 0.05 0.07 0.11 0.12 0.11 0.11 0.09
0.02 0.01 0.01 0.00 0.00 0.00 0.00 0.00 0.00 0.00 0.00 0.00 0.00 0.00 0.01 0.01 0.00 0.00 0.00 0.00 0.00 0.01 0.01 0.01 0.02 0.02 0.02 0.02 0.02 0.01 0.01 0.01 0.01 0.01 0.03 0.06 0.09 0.14 0.15 0.15 0.14 0.13 0.10
0.01 0.01 0.00 0.00 0.00 0.00 0.00 0.00 0.00 0.00 0.00 0.00 0.00 0.01 0.01 0.02 0.01 0.00 0.00 0.00 0.00 0.00 0.00 0.01 0.01 0.03 0.03 0.02 0.01 0.02 0.02 0.02 0.02 0.03 0.07 0.11 0.14 0.18 0.17 0.14 0.12 0.11 0.11
0.00 0.00 0.00 0.00 0.00 0.00 0.00 0.00 0.00 0.00 0.00 0.00 0.01 0.01 0.02 0.02 0.01 0.00 0.00 0.00 0.00 0.00 0.00 0.01 0.02 0.03 0.02 0.01 0.01 0.01 0.02 0.02 0.04 0.07 0.10 0.12 0.13 0.13 0.11 0.08 0.07 0.09 0.11
0.00 0.00 0.00 0.00 0.00 0.00 0.00 0.00 0.00 0.00 0.00 0.00 0.01 0.01 0.01 0.01 0.01 0.00 0.00 0.00 0.00 0.00 0.01 0.02 0.03 0.04 0.03 0.03 0.03 0.03 0.04 0.06 0.08 0.10 0.11 0.11 0.09 0.08 0.07 0.05 0.05 0.06 0.08
0.00 0.00 0.00 0.00 0.00 0.00 0.00 0.00 0.00 0.00 0.00 0.00 0.01 0.01 0.01 0.01 0.01 0.00 0.00 0.00 0.00 0.01 0.02 0.05 0.06 0.06 0.07 0.07 0.07 0.08 0.09 0.08 0.09 0.09 0.09 0.07 0.06 0.06 0.07 0.06 0.06 0.06 0.07
0.00 0.00 0.00 0.00 0.00 0.00 0.00 0.00 0.00 0.00 0.01 0.01 0.01 0.01 0.01 0.01 0.01 0.01 0.00 0.00 0.00 0.01 0.02 0.07 0.12 0.13 0.13 0.13 0.13 0.11 0.08 0.06 0.06 0.06 0.05 0.04 0.05 0.06 0.06 0.06 0.05 0.05 0.06
0.00 0.00 0.00 0.00 0.00 0.00 0.00 0.00 0.00 0.00 0.00 0.00 0.01 0.01 0.01 0.01 0.01 0.01 0.01 0.00 0.00 0.01 0.03 0.05 0.07 0.09 0.10 0.10 0.09 0.07 0.05 0.04 0.04 0.04 0.04 0.04 0.04 0.06 0.06 0.06 0.05 0.04 0.05
0.00 0.00 0.00 0.00 0.00 0.00 0.01 0.01 0.00 0.00 0.00 0.00 0.00 0.00 0.01 0.01 0.01 0.00 0.00 0.01 0.01 0.02 0.03 0.05 0.06 0.07 0.07 0.07 0.06 0.06 0.05 0.04 0.03 0.03 0.03 0.03 0.05 0.06 0.07 0.06 0.05 0.05 0.06
0.00 0.00 0.00 0.00 0.00 0.00 0.01 0.01 0.02 0.01 0.01 0.00 0.00 0.00 0.00 0.00 0.00 0.00 0.00 0.00 0.01 0.02 0.03 0.04 0.05 0.06 0.07 0.07 0.06 0.05 0.05 0.05 0.04 0.03 0.03 0.04 0.05 0.06 0.07 0.07 0.06 0.06 0.06
0.00 0.00 0.00 0.00 0.00 0.00 0.00 0.01 0.01 0.02 0.02 0.02 0.01 0.00 0.00 0.00 0.00 0.00 0.00 0.00 0.01 0.02 0.03 0.04 0.04 0.05 0.07 0.08 0.07 0.05 0.05 0.04 0.04 0.04 0.04 0.05 0.06 0.06 0.06 0.06 0.06 0.05 0.05
0.00 0.00 0.00 0.00 0.00 0.00 0.00 0.00 0.01 0.01 0.01 0.01 0.01 0.00 0.00 0.00 0.00 0.00 0.00 0.00 0.01 0.02 0.03 0.03 0.03 0.04 0.05 0.07 0.08 0.06 0.05 0.05 0.04 0.04 0.05 0.06 0.08 0.08 0.06 0.05 0.03 0.03 0.03
0.00 0.00 0.00 0.00 0.00 0.00 0.00 0.00 0.00 0.01 0.01 0.01 0.01 0.00 0.00 0.00 0.01 0.01 0.01 0.01 0.01 0.01 0.02 0.02 0.02 0.02 0.03 0.05 0.07 0.07 0.06 0.05 0.05 0.05 0.06 0.08 0.08 0.07 0.05 0.05 0.04 0.03 0.03
0.00 0.00 0.00 0.00 0.00 0.00 0.00 0.00 0.00 0.01 0.01 0.01 0.01 0.00 0.00 0.01 0.01 0.01 0.01 0.01 0.01 0.02 0.01 0.01 0.01 0.02 0.02 0.03 0.05 0.06 0.06 0.06 0.06 0.06 0.07 0.07 0.06 0.05 0.04 0.03 0.02 0.02 0.01
0.00 0.00 0.00 0.00 0.00 0.00 0.00 0.00 0.00 0.00 0.00 0.00 0.00 0.00 0.00 0.01 0.01 0.01 0.02 0.02 0.02 0.02 0.01 0.01 0.02 0.02 0.02 0.02 0.03 0.04 0.04 0.05 0.06 0.07 0.08 0.07 0.05 0.03 0.02 0.01 0.01 0.01 0.00
0.00 0.00 0.00 0.00 0.00 0.00 0.00 0.00 0.00 0.00 0.00 0.00 0.00 0.00 0.00 0.01 0.01 0.03 0.03 0.03 0.02 0.02 0.01 0.01 0.01 0.02 0.02 0.02 0.03 0.03 0.02 0.03 0.05 0.06 0.07 0.06 0.04 0.02 0.01 0.01 0.00 0.00 0.00
0.00 0.00 0.00 0.00 0.00 0.00 0.00 0.00 0.00 0.00 0.00 0.00 0.00 0.00 0.00 0.01 0.02 0.03 0.03 0.03 0.03 0.02 0.01 0.01 0.01 0.01 0.01 0.01 0.02 0.01 0.01 0.01 0.02 0.04 0.06 0.05 0.03 0.02 0.01 0.00 0.00 0.00 0.00
0.00 0.00 0.00 0.00 0.00 0.00 0.00 0.00 0.00 0.00 0.00 0.00 0.00 0.00 0.00 0.00 0.01 0.01 0.02 0.03 0.03 0.03 0.02 0.01 0.01 0.01 0.01 0.00 0.00 0.00 0.00 0.01 0.01 0.02 0.04 0.05 0.03 0.01 0.01 0.00 0.00 0.00 0.00
0.00 0.00 0.00 0.00 0.00 0.00 0.00 0.00 0.00 0.00 0.00 0.00 0.00 0.00 0.00 0.00 0.00 0.00 0.01 0.01 0.02 0.02 0.02 0.01 0.01 0.01 0.00 0.00 0.00 0.00 0.00 0.00 0.00 0.00 0.02 0.04 0.03 0.02 0.01 0.00 0.00 0.00 0.00
MSLP
1015.97 1016.21 1016.46 1016.71 1016.95 1017.17 1017.36 1017.51 1017.64 1017.74 1017.83 1017.91 1017.98 1018.04 1018.07 1018.08 1018.05 1017.99 1017.91 1017.81 1017.70 1017.61 1017.52 1017.45 1017.39 1017.33 1017.26 1017.16 1017.03 1016.85 1016.63 1016.34 1016.01 1015.63 1015.20 1014.74 1014.25 1013.76 1013.28 1012.83 1012.42 1012.08 1011.82
1016.48 1016.68 1016.89 1017.09 1017.28 1017.44 1017.57 1017.67 1017.75 1017.82 1017.88 1017.94 1017.99 1018.03 1018.05 1018.05 1018.01 1017.94 1017.84 1017.71 1017.57 1017.43 1017.29 1017.17 1017.05 1016.95 1016.84 1016.73 1016.60 1016.44 1016.25 1016.01 1015.73 1015.39 1015.00 1014.57 1014.10 1013.60 1013.09 1012.60 1012.13 1011.72 1011.38
1016.96 1017.15 1017.31 1017.47 1017.60 1017.71 1017.79 1017.85 1017.90 1017.95 1018.00 1018.06 1018.12 1018.17 1018.21 1018.21 1018.18 1018.11 1017.99 1017.84 1017.65 1017.45 1017.25 1017.05 1016.87 1016.70 1016.55 1016.41 1016.27 1016.12 1015.95 1015.74 1015.50 1015.20 1014.84 1014.43 1013.97 1013.46 1012.92 1012.39 1011.87 1011.40 1011.00
1017.43 1017.59 1017.73 1017.84 1017.92 1017.98 1018.02 1018.06 1018.09 1018.14 1018.20 1018.28 1018.37 1018.45 1018.52 1018.55 1018.54 1018.47 1018.33 1018.15 1017.91 1017.64 1017.36 1017.08 1016.81 1016.57 1016.35 1016.16 1015.99 1015.83 1015.66 1015.48 1015.25 1014.98 1014.64 1014.24 1013.77 1013.25 1012.69 1012.13 1011.57 1011.06 1010.61
1017.88 1018.01 1018.11 1018.18 1018.22 1018.24 1018.26 1018.28 1018.31 1018.37 1018.47 1018.58 1018.71 1018.84 1018.94 1019.00 1019.00 1018.93 1018.77 1018.55 1018.25 1017.91 1017.54 1017.16 1016.80 1016.47 1016.17 1015.92 1015.70 1015.51 1015.33 1015.14 1014.91 1014.64 1014.31 1013.90 1013.43 1012.90 1012.33 1011.74 1011.17 1010.64 1010.17
1018.29 1018.39 1018.46 1018.49 1018.49 1018.49 1018.49 1018.51 1018.56 1018.64 1018.77 1018.92 1019.09 1019.25 1019.38 1019.46 1019.46 1019.38 1019.19 1018.92 1018.56 1018.13 1017.67 1017.20 1016.74 1016.31 1015.93 1015.60 1015.33 1015.09 1014.87 1014.66 1014.42 1014.13 1013.79 1013.38 1012.90 1012.37 1011.80 1011.21 1010.65 1010.13 1009.68
1018.64 1018.71 1018.75 1018.75 1018.74 1018.72 1018.72 1018.75 1018.82 1018.93 1019.08 1019.26 1019.45 1019.63 1019.77 1019.84 1019.83 1019.71 1019.48 1019.15 1018.72 1018.22 1017.67 1017.11 1016.56 1016.04 1015.57 1015.17 1014.83 1014.53 1014.27 1014.02 1013.76 1013.46 1013.11 1012.69 1012.22 1011.70 1011.14 1010.59 1010.06 1009.58 1009.17
1018.91 1018.96 1018.98 1018.97 1018.96 1018.95 1018.96 1019.01 1019.10 1019.23 1019.39 1019.58 1019.77 1019.93 1020.04 1020.08 1020.02 1019.85 1019.57 1019.17 1018.67 1018.10 1017.48 1016.84 1016.22 1015.63 1015.09 1014.62 1014.22 1013.88 1013.57 1013.29 1013.00 1012.69 1012.34 1011.93 1011.47 1010.98 1010.46 1009.96 1009.48 1009.06 1008.72
1019.09 1019.13 1019.15 1019.15 1019.16 1019.18 1019.22 1019.29 1019.40 1019.54 1019.71 1019.88 1020.03 1020.15 1020.21 1020.18 1020.05 1019.81 1019.46 1019.00 1018.44 1017.81 1017.14 1016.45 1015.77 1015.13 1014.54 1014.03 1013.58 1013.20 1012.86 1012.56 1012.26 1011.95 1011.60 1011.22 1010.80 1010.35 1009.89 1009.45 1009.04 1008.68 1008.40
1019.20 1019.24 1019.27 1019.31 1019.36 1019.42 1019.51 1019.62 1019.75 1019.90 1020.04 1020.18 1020.28 1020.33 1020.30 1020.19 1019.98 1019.66 1019.24 1018.72 1018.11 1017.44 1016.73 1016.01 1015.31 1014.64 1014.02 1013.48 1013.01 1012.60 1012.25 1011.94 1011.65 1011.35 1011.04 1010.70 1010.33 1009.94 1009.54 1009.16 1008.82 1008.53 1008.30
1019.24 1019.30 1019.38 1019.47 1019.58 1019.70 1019.84 1019.99 1020.15 1020.29 1020.42 1020.50 1020.54 1020.50 1020.39 1020.18 1019.88 1019.49 1019.00 1018.43 1017.79 1017.10 1016.38 1015.65 1014.94 1014.26 1013.64 1013.09 1012.60 1012.19 1011.84 1011.54 1011.26 1010.99 1010.72 1010.43 1010.12 1009.79 1009.47 1009.15 1008.86 1008.62 1008.43
1019.24 1019.34 1019.47 1019.63 1019.80 1020.00 1020.20 1020.40 1020.58 1020.72 1020.83 1020.87 1020.83 1020.72 1020.51 1020.22 1019.84 1019.38 1018.84 1018.24 1017.58 1016.88 1016.17 1015.45 1014.74 1014.08 1013.46 1012.91 1012.43 1012.02 1011.67 1011.38 1011.12 1010.89 1010.66 1010.42 1010.17 1009.91 1009.65 1009.39 1009.15 1008.94 1008.77
1019.24 1019.38 1019.57 1019.79 1020.03 1020.29 1020.55 1020.79 1021.00 1021.15 1021.24 1021.24 1021.16 1020.98 1020.71 1020.35 1019.91 1019.40 1018.83 1018.21 1017.55 1016.86 1016.16 1015.46 1014.77 1014.12 1013.51 1012.96 1012.48 1012.07 1011.72 1011.44 1011.20 1010.99 1010.80 1010.61 1010.42 1010.21 1010.01 1009.80 1009.60 1009.41 1009.24
1019.25 1019.43 1019.66 1019.93 1020.23 1020.54 1020.85 1021.13 1021.36 1021.52 1021.60 1021.58 1021.47 1021.25 1020.94 1020.55 1020.08 1019.55 1018.97 1018.35 1017.70 1017.03 1016.35 1015.67 1015.00 1014.36 1013.76 1013.21 1012.72 1012.29 1011.94 1011.65 1011.42 1011.22 1011.05 1010.90 1010.75 1010.59 1010.42 1010.25 1010.09 1009.92 1009.76
1019.28 1019.49 1019.74 1020.03 1020.36 1020.70 1021.03 1021.33 1021.58 1021.76 1021.84 1021.83 1021.70 1021.48 1021.16 1020.77 1020.30 1019.78 1019.21 1018.62 1017.99 1017.35 1016.70 1016.04 1015.39 1014.75 1014.14 1013.58 1013.07 1012.63 1012.25 1011.94 1011.68 1011.48 1011.32 1011.18 1011.05 1010.92 1010.79 1010.66 1010.52 1010.38 1010.24
1019.35 1019.54 1019.78 1020.07 1020.39 1020.72 1021.06 1021.36 1021.62 1021.81 1021.91 1021.91 1021.81 1021.60 1021.32 1020.95 1020.52 1020.03 1019.51 1018.95 1018.36 1017.76 1017.13 1016.50 1015.86 1015.23 1014.61 1014.03 1013.49 1013.01 1012.59 1012.23 1011.94 1011.71 1011.53 1011.38 1011.26 1011.14 1011.04 1010.93 1010.83 1010.73 1010.64
1019.42 1019.58 1019.79 1020.03 1020.31 1020.61 1020.92 1021.21 1021.47 1021.66 1021.78 1021.81 1021.75 1021.60 1021.36 1021.05 1020.68 1020.25 1019.78 1019.28 1018.75 1018.18 1017.60 1016.99 1016.36 1015.73 1015.11 1014.50 1013.93 1013.40 1012.93 1012.53 1012.19 1011.91 1011.68 1011.51 1011.36 1011.25 1011.16 1011.08 1011.02 1010.97 1010.93
1019.51 1019.62 1019.76 1019.93 1020.15 1020.40 1020.66 1020.92 1021.16 1021.36 1021.50 1021.57 1021.56 1021.47 1021.30 1021.06 1020.77 1020.42 1020.02 1019.58 1019.11 1018.60 1018.05 1017.48 1016.88 1016.26 1015.63 1015.01 1014.41 1013.84 1013.32 1012.85 1012.45 1012.11 1011.83 1011.60 1011.43 1011.30 1011.21 1011.15 1011.12 1011.12 1011.15
1019.62 1019.65 1019.71 1019.81 1019.95 1020.12 1020.33 1020.55 1020.77 1020.97 1021.13 1021.24 1021.28 1021.26 1021.17 1021.02 1020.80 1020.53 1020.22 1019.85 1019.44 1018.99 1018.50 1017.97 1017.40 1016.80 1016.19 1015.56 1014.94 1014.34 1013.77 1013.25 1012.79 1012.38 1012.03 1011.75 1011.53 1011.37 1011.26 1011.21 1011.21 1011.25 1011.34
1019.75 1019.71 1019.69 1019.71 1019.77 1019.87 1020.02 1020.20 1020.39 1020.59 1020.77 1020.92 1021.02 1021.06 1021.05 1020.97 1020.84 1020.64 1020.40 1020.10 1019.76 1019.37 1018.93 1018.45 1017.93 1017.37 1016.78 1016.17 1015.55 1014.93 1014.33 1013.77 1013.24 1012.77 1012.36 1012.01 1011.74 1011.53 1011.39 1011.33 1011.33 1011.39 1011.52
1019.91 1019.81 1019.72 1019.67 1019.66 1019.71 1019.81 1019.95 1020.13 1020.32 1020.52 1020.69 1020.84 1020.94 1020.98 1020.97 1020.91 1020.78 1020.60 1020.37 1020.08 1019.75 1019.37 1018.94 1018.47 1017.96 1017.40 1016.82 1016.21 1015.60 1014.99 1014.39 1013.82 1013.30 1012.82 1012.42 1012.08 1011.81 1011.63 1011.53 1011.52 1011.58 1011.72
1020.11 1019.97 1019.83 1019.73 1019.68 1019.69 1019.75 1019.87 1020.03 1020.22 1020.43 1020.63 1020.80 1020.94 1021.03 1021.07 1021.05 1020.97 1020.83 1020.64 1020.40 1020.12 1019.78 1019.41 1018.98 1018.52 1018.01 1017.47 1016.89 1016.29 1015.68 1015.08 1014.48 1013.92 1013.40 1012.93 1012.53 1012.21 1011.98 1011.84 1011.78 1011.82 1011.94
1020.36 1020.19 1020.04 1019.92 1019.84 1019.83 1019.88 1019.98 1020.13 1020.33 1020.53 1020.74 1020.93 1021.09 1021.20 1021.26 1021.26 1021.20 1021.09 1020.92 1020.71 1020.45 1020.15 1019.81 1019.43 1019.01 1018.55 1018.04 1017.51 1016.94 1016.35 1015.74 1015.14 1014.55 1014.00 1013.49 1013.05 1012.68 1012.40 1012.20 1012.10 1012.09 1012.18
1020.65 1020.48 1020.33 1020.21 1020.14 1020.12 1020.16 1020.26 1020.41 1020.60 1020.80 1021.01 1021.20 1021.36 1021.47 1021.52 1021.52 1021.47 1021.35 1021.19 1020.98 1020.73 1020.45 1020.13 1019.77 1019.38 1018.96 1018.49 1017.99 1017.46 1016.89 1016.31 1015.71 1015.12 1014.56 1014.03 1013.56 1013.16 1012.84 1012.60 1012.45 1012.40 1012.43
1020.98 1020.83 1020.69 1020.59 1020.53 1020.52 1020.57 1020.67 1020.82 1020.99 1021.19 1021.38 1021.55 1021.69 1021.79 1021.83 1021.81 1021.73 1021.61 1021.43 1021.21 1020.95 1020.67 1020.35 1020.01 1019.64 1019.24 1018.80 1018.33 1017.82 1017.29 1016.73 1016.16 1015.59 1015.03 1014.50 1014.03 1013.61 1013.27 1013.01 1012.83 1012.74 1012.72
1021.33 1021.20 1021.10 1021.02 1020.99 1021.00 1021.06 1021.16 1021.30 1021.46 1021.64 1021.80 1021.96 1022.07 1022.14 1022.15 1022.11 1022.01 1021.86 1021.66 1021.42 1021.15 1020.85 1020.53 1020.18 1019.81 1019.42 1019.00 1018.55 1018.07 1017.56 1017.03 1016.49 1015.95 1015.41 1014.91 1014.45 1014.04 1013.71 1013.44 1013.26 1013.14 1013.10
Thickness
5632 5627 5620 5614 5608 5603 5597 5590 5583 5575 5568 5563 5557 5552 5546 5541 5536 5530 5525 5519 5514 5508 5501 5495 5489 5481 5474 5468 5461 5456 5450 5446 5447 5452 5447 5446 5444 5443 5444 5444 5445 5447 5450
5619 5613 5606 5601 5595 5589 5582 5575 5569 5562 5556 5551 5545 5540 5534 5530 5524 5519 5513 5507 5501 5494 5487 5480 5474 5467 5460 5453 5446 5441 5436 5431 5429 5433 5432 5430 5431 5431 5432 5434 5436 5439 5441
5604 5597 5590 5584 5578 5572 5566 5560 5555 5549 5542 5537 5531 5526 5521 5516 5510 5503 5496 5489 5482 5475 5469 5463 5458 5451 5444 5437 5430 5425 5421 5419 5417 5417 5420 5420 5422 5423 5425 5427 5430 5432 5435
5587 5579 5572 5566 5560 5554 5550 5544 5539 5534 5528 5522 5517 5511 5506 5499 5490 5482 5476 5470 5464 5458 5452 5447 5441 5435 5429 5423 5418 5414 5411 5410 5408 5409 5411 5414 5417 5419 5420 5422 5424 5426 5428
5568 5561 5554 5549 5544 5539 5534 5529 5524 5517 5510 5504 5500 5495 5489 5483 5471 5463 5458 5454 5448 5443 5438 5433 5427 5422 5417 5412 5409 5407 5404 5403 5403 5404 5407 5410 5413 5415 5415 5417 5418 5420 5423
5551 5546 5540 5535 5530 5524 5518 5513 5507 5501 5494 5488 5484 5479 5473 5465 5454 5447 5442 5437 5433 5429 5425 5420 5415 5412 5410 5407 5404 5402 5399 5398 5399 5400 5403 5406 5409 5411 5412 5413 5413 5415 5420
5539 5534 5530 5524 5517 5511 5505 5498 5492 5485 5479 5474 5469 5464 5458 5450 5441 5434 5429 5425 5422 5418 5413 5409 5407 5406 5402 5401 5399 5397 5396 5396 5398 5399 5403 5406 5408 5410 5410 5412 5413 5415 5419
5528 5524 5518 5512 5505 5498 5491 5484 5478 5471 5465 5461 5457 5451 5445 5439 5430 5424 5418 5415 5412 5408 5404 5402 5400 5399 5397 5394 5394 5394 5395 5397 5399 5402 5406 5409 5410 5411 5411 5414 5417 5421 5425
5517 5511 5505 5499 5492 5485 5477 5469 5464 5459 5454 5448 5444 5438 5433 5428 5420 5414 5407 5406 5405 5401 5398 5397 5395 5394 5393 5390 5391 5394 5397 5401 5405 5408 5410 5411 5413 5414 5415 5419 5423 5427 5430
5505 5498 5491 5484 5477 5470 5463 5457 5452 5447 5442 5436 5431 5427 5422 5417 5410 5403 5398 5398 5397 5396 5395 5395 5394 5392 5391 5391 5393 5396 5401 5405 5409 5411 5413 5415 5417 5418 5420 5422 5425 5428 5430
5492 5485 5477 5471 5466 5459 5452 5446 5441 5435 5430 5425 5420 5416 5412 5406 5400 5394 5391 5390 5390 5391 5393 5394 5393 5392 5393 5395 5398 5401 5405 5408 5411 5413 5416 5418 5419 5420 5421 5422 5422 5423 5425
5480 5473 5466 5460 5454 5448 5442 5435 5428 5423 5418 5413 5408 5404 5400 5395 5391 5387 5385 5385 5385 5388 5390 5391 5392 5393 5397 5400 5404 5408 5411 5413 5415 5417 5418 5419 5420 5421 5420 5419 5419 5418 5418
5470 5464 5457 5451 5443 5436 5429 5423 5416 5411 5405 5400 5395 5391 5388 5386 5383 5381 5382 5383 5384 5386 5388 5390 5393 5396 5399 5404 5407 5410 5414 5416 5418 5419 5420 5420 5420 5420 5419 5418 5417 5416 5416
5461 5456 5450 5442 5433 5424 5418 5411 5405 5399 5394 5388 5384 5380 5378 5377 5376 5376 5377 5380 5383 5385 5388 5391 5395 5398 5401 5405 5408 5411 5414 5416 5418 5420 5420 5421 5421 5420 5419 5418 5417 5416 5416
5453 5448 5441 5433 5425 5415 5407 5399 5393 5386 5380 5377 5375 5373 5372 5371 5370 5371 5373 5377 5380 5383 5387 5392 5396 5400 5404 5407 5409 5412 5414 5417 5419 5420 5421 5422 5422 5422 5420 5419 5418 5416 5416
5446 5439 5432 5423 5415 5408 5400 5392 5384 5380 5375 5371 5368 5366 5368 5367 5368 5371 5374 5377 5380 5384 5388 5392 5396 5400 5404 5407 5409 5411 5414 5416 5418 5421 5422 5423 5424 5424 5422 5421 5420 5418 5417
5435 5428 5422 5415 5407 5401 5396 5391 5385 5378 5373 5370 5367 5366 5366 5366 5367 5370 5374 5378 5381 5384 5388 5391 5395 5400 5404 5407 5409 5411 5414 5417 5419 5421 5423 5425 5426 5426 5425 5423 5421 5419 5417
5428 5420 5416 5409 5404 5399 5394 5389 5384 5380 5375 5372 5368 5366 5366 5367 5367 5369 5372 5377 5381 5384 5387 5390 5394 5399 5403 5407 5410 5413 5415 5418 5421 5422 5424 5426 5428 5428 5428 5426 5423 5420 5418
5421 5416 5411 5407 5403 5398 5394 5390 5385 5379 5374 5371 5369 5368 5366 5367 5367 5368 5371 5374 5377 5381 5385 5389 5394 5398 5403 5407 5411 5414 5417 5419 5421 5423 5426 5428 5430 5431 5431 5430 5428 5424 5422
5414 5407 5406 5405 5401 5397 5393 5388 5383 5377 5373 5369 5367 5364 5364 5365 5365 5366 5368 5371 5375 5380 5384 5389 5393 5397 5402 5406 5411 5414 5417 5419 5422 5425 5428 5430 5433 5435 5435 5435 5434 5433 5430
5416 5410 5402 5403 5397 5393 5390 5386 5382 5376 5372 5370 5365 5360 5359 5361 5362 5363 5367 5371 5375 5379 5383 5388 5393 5397 5401 5405 5409 5412 5415 5418 5422 5425 5429 5433 5436 5438 5440 5440 5440 5439 5438
5415 5411 5406 5401 5396 5390 5388 5384 5379 5375 5372 5369 5367 5363 5360 5361 5362 5365 5368 5372 5376 5380 5384 5388 5392 5396 5400 5403 5406 5409 5413 5416 5420 5425 5430 5435 5438 5442 5444 5444 5444 5444 5444
5414 5410 5405 5400 5396 5390 5387 5382 5378 5374 5371 5369 5367 5365 5364 5364 5365 5367 5370 5374 5378 5382 5386 5389 5393 5396 5400 5403 5405 5408 5410 5413 5418 5424 5431 5436 5440 5443 5445 5446 5447 5447 5448
5413 5408 5402 5398 5394 5390 5386 5381 5378 5375 5372 5370 5369 5368 5367 5368 5369 5371 5373 5377 5381 5385 5388 5391 5393 5396 5400 5403 5406 5409 5411 5414 5420 5426 5433 5438 5442 5445 5446 5448 5449 5450 5450
5413 5407 5401 5396 5393 5389 5385 5382 5378 5376 5374 5372 5371 5371 5371 5373 5374 5375 5377 5380 5384 5387 5390 5392 5395 5397 5400 5403 5406 5409 5414 5419 5423 5428 5434 5439 5444 5446 5448 5450 5452 5453 5454
5414 5408 5403 5398 5394 5390 5386 5383 5380 5378 5376 5374 5373 5373 5374 5376 5377 5379 5381 5383 5386 5388 5391 5393 5396 5398 5400 5404 5407 5411 5416 5421 5426 5431 5435 5440 5444 5446 5449 5452 5454 5455 5456